Location: Lane
(33.5226°N, 79.8788°W)
Time: 09:36:26
(UTC+00:00)

Altair - Pass Details

Date: 08 October 2022
Orbit: 1501 x 1682 km, 47.2° (Epoch: 30 November)

Event Time Altitude Azimuth Distance (km) Brightness Sun altitude
Rises 08:16:29 0° 233° (SW) 4,684 - -38.2°
Reaches altitude 10° 08:19:29 10° 233° (SW) 3,723 - -37.7°
Exits shadow 08:28:44 85° 278° (W) 1,600 7.3 -35.8°
Maximum altitude 08:28:59 86° 323° (NW) 1,599 7.3 -35.8°
Drops below altitude 10° 08:38:55 10° 53° (NE) 3,878 10.3 -33.8°
Sets 08:42:06 0° 54° (NE) 4,887 11.1 -33.2°
